1497013200.98,24250,21.38,74206.5,16.03,-2.63,2.89,0,*61
1497013202.21,24251,21.38,74204.5,16.05,-2.99,2.55,0,*62
1497013203.38,24252,21.38,74206.3,16.03,-2.39,2.99,0,*6D
1497013204.59,24253,21.38,74202.8,16.03,-1.79,3.33,0,*6A
1497013205.82,24254,21.38,74206.5,16.01,-1.25,3.45,0,*67
1497013207.0,24255,21.38,74206.0,16.03,-0.81,3.59,0,*56
1497013208.22,24256,21.38,74204.8,16.03,-0.89,3.11,0,*51
1497013209.42,24257,21.38,74204.8,16.03,-0.65,3.07,0,*55
1497013210.62,24258,21.38,74204.3,16.03,-0.37,2.77,0,*5B
1497013211.8,24259,21.38,74204.3,16.03,-0.37,2.35,0,*5C
1497013213.01,24260,21.38,74204.5,16.01,-1.25,0.95,0,*5E
1497013214.27,24261,21.38,74204.0,16.01,-1.05,0.59,0,*5D
1497013215.5,24262,21.38,74204.8,15.97,-0.57,0.59,0,*64
1497013216.73,24263,21.38,74206.5,15.97,0.17,0.75,0,*42
1497013217.97,24264,21.38,74206.5,15.97,0.87,0.95,0,*42
1497013219.22,24265,21.38,74206.3,15.93,1.09,0.71,0,*7A
1497013220.46,24266,21.38,74206.3,15.93,1.43,0.47,0,*72
1497013221.69,24267,21.38,74204.8,15.93,1.21,-0.15,0,*5D
1497013222.92,24268,21.38,74204.0,15.93,1.51,-0.49,0,*5C
1497013224.13,24269,21.38,74208.8,15.91,1.09,-1.29,0,*65
1497013225.32,24270,21.38,74208.3,15.91,1.83,-0.93,0,*5F
1497013226.53,24271,21.38,74208.8,15.91,1.71,-1.29,0,*63
1497013227.76,24272,21.38,74208.0,15.89,0.95,-2.31,0,*58
1497013229.02,24273,21.38,74206.5,15.89,0.79,-2.55,0,*59
1497013230.23,24274,21.38,74210.3,15.91,1.71,-1.67,0,*6C
1497013231.46,24275,21.38,74206.5,15.91,1.93,-1.39,0,*6A
1497013232.64,24276,21.38,74204.0,15.91,2.35,-0.81,0,*54
1497013233.85,24277,21.38,74204.8,15.91,1.71,-1.63,0,*6B
1497013235.05,24278,21.38,74206.5,15.95,1.71,-1.59,0,*69
1497013236.26,24279,21.38,74204.5,15.95,1.85,-1.63,0,*6A
1497013237.5,24280,21.38,74208.0,15.95,1.37,-2.07,0,*64
1497013238.71,24281,21.38,74206.3,15.99,1.71,-1.33,0,*6F
1497013239.93,24282,21.38,74208.5,15.99,3.41,0.67,0,*70
1497013241.16,24283,21.38,74210.0,16.05,4.45,1.85,0,*49
1497013242.4,24284,21.38,74208.8,16.13,5.01,2.61,0,*41
1497013243.66,24285,21.38,74206.0,16.21,3.19,0.91,0,*73
1497013244.87,24286,21.38,74206.8,16.27,2.65,0.51,0,*70
1497013246.09,24287,21.38,74204.0,16.31,1.25,-0.53,0,*5E
1497013247.34,24288,21.38,74206.0,16.37,-1.43,-3.07,0,*48
1497013248.58,24289,21.38,74208.0,16.37,-1.59,-2.63,0,*41
1497013249.83,24290,21.38,74206.0,16.37,-1.35,-2.23,0,*47
1497013251.07,24291,21.38,74204.0,16.37,-2.43,-2.75,0,*47
1497013252.32,24292,21.38,74210.0,16.33,-2.67,-2.79,0,*4A
1497013253.54,24293,21.38,74204.8,16.33,-3.15,-3.15,0,*44
1497013254.76,24294,21.38,74204.0,16.33,-3.23,-3.11,0,*42
1497013256.01,24295,21.38,74204.0,16.33,-2.79,-2.63,0,*49
1497013257.24,24296,21.38,74206.0,16.31,-3.03,-2.67,0,*40
1497013258.5,24297,21.38,74204.8,16.29,-3.59,-2.99,0,*46
1497013259.75,24298,21.38,74208.0,16.29,-2.87,-1.99,0,*48
1497013260.97,24299,21.38,74204.0,16.31,-2.83,-1.83,0,*4F
1497013262.19,24300,21.38,74200.8,16.31,-2.71,-1.63,0,*4D
1497013263.4,24301,21.38,74206.3,16.31,-3.39,-2.39,0,*4D
1497013264.6,24302,21.38,74206.5,16.31,-3.91,-2.83,0,*4D
1497013265.85,24303,21.38,74200.5,16.29,-2.59,-1.59,0,*44
1497013267.07,24304,21.38,74204.0,16.31,-2.67,-1.55,0,*4B
1497013268.26,24305,21.38,74202.0,16.31,-1.55,-0.41,0,*7C
1497013269.48,24306,21.38,74202.8,16.31,-1.95,-0.81,0,*7F
1497013270.76,24307,21.38,74204.8,16.33,-2.63,-1.47,0,*4D
1497013272.01,24308,21.38,74204.0,16.33,-3.43,-2.15,0,*45
1497013273.29,24309,21.38,74204.5,16.33,-3.43,-2.11,0,*40
1497013274.54,24310,21.38,74202.5,16.33,-2.55,-1.17,0,*4B
1497013275.74,24311,21.38,74206.3,16.31,-3.07,-1.75,0,*4A
1497013276.95,24312,21.38,74204.5,16.33,-1.51,-0.03,0,*4A
1497013278.16,24313,21.38,74204.0,16.37,-1.33,0.05,0,*60
1497013279.43,24314,21.38,74206.3,16.37,-2.51,-1.01,0,*48
1497013280.68,24315,21.38,74206.0,16.37,-1.83,-0.49,0,*78
1497013281.95,24316,21.38,74206.0,16.37,-1.99,-1.01,0,*4D
1497013283.17,24317,21.38,74202.8,16.39,-2.83,-1.87,0,*44
1497013284.38,24318,21.38,74206.5,16.39,-4.37,-3.51,0,*4B
1497013285.61,24319,21.38,74204.0,16.33,-4.05,-3.11,0,*45
1497013286.86,24320,21.38,74204.5,16.37,-2.95,-1.87,0,*49
1497013288.08,24321,21.38,74200.5,16.37,-3.23,-2.19,0,*40
1497013289.33,24322,21.38,74202.8,16.37,-2.95,-1.83,0,*4F
1497013290.57,24323,21.38,74206.5,16.37,-3.11,-1.95,0,*44
1497013291.84,24324,21.38,74204.5,16.33,-3.75,-2.47,0,*49
1497013293.07,24325,21.38,74204.5,16.33,-3.75,-2.35,0,*4D
1497013294.32,24326,21.38,74200.5,16.33,-4.89,-3.27,0,*48
1497013295.57,24327,21.38,74204.3,16.29,-4.61,-2.75,0,*42
1497013296.83,24328,21.38,74200.5,16.29,-3.95,-1.99,0,*40
1497013298.06,24329,21.38,74204.0,16.29,-4.41,-2.23,0,*4D
1497013299.31,24330,21.38,74202.5,16.29,-4.53,-1.99,0,*44
1497013300.55,24331,21.38,74202.8,16.29,-4.37,-1.43,0,*40
1497013301.77,24332,21.38,74204.5,16.23,-4.77,-1.75,0,*48
1497013302.99,24333,21.38,74206.3,16.21,-4.61,-1.33,0,*4E
1497013304.23,24334,21.38,74206.0,16.21,-4.61,-1.05,0,*4C
1497013305.44,24335,21.38,74204.3,16.19,-4.21,-0.37,0,*72
1497013306.64,24336,21.38,74200.0,16.19,-4.61,-0.73,0,*75
1497013307.87,24337,21.38,74204.5,16.19,-5.69,-1.55,0,*48
1497013309.07,24338,21.38,74204.8,16.15,-6.73,-2.23,0,*41
1497013310.28,24339,21.38,74206.3,16.11,-6.97,-2.27,0,*4A
1497013311.51,24340,21.38,74204.0,16.07,-5.93,-0.97,0,*7D
1497013312.75,24341,21.38,74206.3,16.03,-5.31,-0.27,0,*7B
1497013313.94,24342,21.38,74206.0,16.03,-4.17,0.67,0,*54
1497013315.18,24343,21.38,74208.0,16.01,-3.95,0.91,0,*53
1497013316.4,24344,21.38,74206.3,16.01,-3.19,1.67,0,*68
1497013317.65,24345,21.38,74206.0,16.01,-2.51,2.01,0,*67
1497013318.91,24346,21.38,74204.0,16.01,-2.75,1.51,0,*64
1497013320.1,24347,21.38,74204.8,16.01,-1.63,2.35,0,*60
1497013321.3,24348,21.38,74204.5,16.01,-0.29,3.29,0,*5C
1497013322.49,24349,21.38,74204.0,16.03,0.67,3.81,0,*7A
1497013323.71,24350,21.38,74206.3,16.05,1.47,4.19,0,*41
1497013324.91,24351,21.38,74202.8,16.07,2.13,4.45,0,*49
1497013326.15,24352,21.38,74204.8,16.13,2.05,3.81,0,*47
1497013327.41,24353,21.38,74204.0,16.13,2.05,3.33,0,*4F
1497013328.65,24354,21.38,74206.3,16.15,1.47,2.51,0,*4E
1497013329.89,24355,21.38,74204.5,16.17,2.61,3.11,0,*4F
1497013331.13,24356,21.38,74204.5,16.17,3.75,3.85,0,*45
1497013332.37,24357,21.38,74206.5,16.21,3.89,3.67,0,*4E
1497013333.58,24358,21.38,74206.5,16.23,4.33,3.97,0,*4A
1497013334.81,24359,21.38,74202.8,16.27,2.47,1.63,0,*43
1497013336.03,24360,21.38,74204.8,16.27,2.31,1.25,0,*4A
1497013337.23,24361,21.38,74206.3,16.27,2.25,1.41,0,*4C
1497013338.5,24362,21.38,74204.8,16.29,2.43,1.33,0,*44
1497013339.76,24363,21.38,74202.8,16.29,2.05,0.87,0,*79
1497013341.02,24364,21.38,74202.3,16.29,2.69,1.21,0,*49
1497013342.25,24365,21.38,74206.3,16.31,1.43,-0.23,0,*54
1497013343.48,24366,21.38,74204.0,16.31,0.67,-1.09,0,*59
1497013344.72,24367,21.38,74202.8,16.33,1.05,-0.85,0,*5A
1497013345.96,24368,21.38,74206.8,16.33,1.43,-0.49,0,*57
1497013347.17,24369,21.38,74204.0,16.33,1.41,-0.65,0,*5A
1497013348.41,24370,21.38,74204.0,16.37,0.63,-1.71,0,*53
1497013349.67,24371,21.38,74204.8,16.37,-0.23,-2.71,0,*78
1497013350.9,24372,21.38,74204.3,16.33,-0.41,-3.35,0,*7A
1497013352.13,24373,21.38,74202.3,16.33,-0.49,-3.51,0,*71
1497013353.38,24374,21.38,74200.5,16.37,-1.01,-4.09,0,*45
1497013354.59,24375,21.38,74202.3,16.37,-0.15,-3.23,0,*7F
1497013355.79,24376,21.38,74204.3,16.39,0.59,-2.43,0,*50
1497013357.0,24377,21.38,74206.0,16.43,-0.41,-3.71,0,*78
1497013358.18,24378,21.38,74204.0,16.45,0.01,-3.31,0,*6C
1497013359.44,24379,21.38,74202.0,16.47,0.71,-2.67,0,*5A
1497013360.66,24380,21.38,74204.5,16.53,1.29,-2.15,0,*60
1497013361.89,24381,21.38,74204.0,16.61,2.47,-0.93,0,*57
1497013363.14,24382,21.38,74204.0,16.67,1.33,-2.39,0,*60
1497013364.39,24383,21.38,74202.3,16.71,1.75,-2.07,0,*69
1497013365.62,24384,21.38,74200.5,16.81,1.43,-2.83,0,*68
1497013366.85,24385,21.38,74200.5,16.85,0.21,-4.45,0,*54
1497013368.1,24386,21.38,74202.0,16.89,-1.71,-7.01,0,*41
1497013369.34,24387,21.38,74200.3,16.91,-3.47,-9.15,0,*45
1497013370.54,24388,21.38,74202.0,16.91,-2.83,-8.21,0,*45
1497013371.79,24389,21.38,74200.8,16.97,-3.75,-9.37,0,*4C
1497013373.07,24390,21.38,74202.8,16.97,-5.69,-11.07,0,*75
1497013374.29,24391,21.38,74200.5,17.01,-6.01,-10.85,0,*7C
1497013375.55,24392,21.38,74200.3,17.01,-7.35,-11.29,0,*7E
1497013376.78,24393,21.38,74198.8,17.05,-9.27,-12.03,0,*7D
1497013378.02,24394,21.44,74202.5,17.05,-9.75,-11.33,0,*7D
1497013379.24,24395,21.44,74202.0,17.09,-9.45,-9.27,0,*4F
1497013380.46,24396,21.38,74200.0,17.11,-9.31,-8.75,0,*40
1497013381.69,24397,21.38,74200.3,17.15,-11.23,-9.71,0,*7A
1497013382.94,24398,21.38,74202.0,17.15,-12.11,-9.75,0,*73
1497013384.18,24399,21.38,74202.3,17.19,-11.51,-8.41,0,*7F
1497013385.43,24400,21.38,74202.3,17.19,-10.93,-7.39,0,*77
1497013386.71,24401,21.38,74202.8,17.23,-11.63,-7.73,0,*7F
1497013387.94,24402,21.38,74200.5,17.29,-12.29,-7.99,0,*7F
1497013389.16,24403,21.38,74200.8,17.29,-10.79,-6.51,0,*7C
1497013390.37,24404,21.44,74206.0,17.33,-10.05,-5.77,0,*7C
1497013391.6,24405,21.38,74204.3,17.37,-10.41,-6.09,0,*73
1497013392.84,24406,21.38,74206.3,17.37,-10.41,-6.27,0,*7C
1497013394.09,24407,21.38,74206.8,17.41,-9.49,-5.65,0,*49
1497013395.35,24408,21.38,74206.3,17.41,-9.15,-5.27,0,*49
1497013396.59,24409,21.38,74202.8,17.51,-9.11,-5.43,0,*4F
1497013397.8,24410,21.38,74204.5,17.53,-9.01,-5.55,0,*43
1497013399.04,24411,21.44,74206.5,17.55,-9.49,-6.13,0,*49
1497013400.26,24412,21.38,74206.5,17.59,-9.19,-6.01,0,*40
1497013401.5,24413,21.38,74206.0,17.59,-9.57,-6.35,0,*4C
1497013402.72,24414,21.44,74210.3,17.63,-10.45,-7.19,0,*76
1497013403.97,24415,21.38,74206.0,17.65,-11.07,-7.73,0,*7A
1497013405.2,24416,21.38,74206.3,17.65,-12.89,-9.53,0,*70
1497013406.41,24417,21.38,74206.3,17.65,-13.69,-10.05,0,*45
1497013407.65,24418,21.38,74206.3,17.61,-14.47,-10.53,0,*46
1497013408.91,24419,21.38,74200.3,17.61,-17.59,-12.75,0,*4D
1497013410.17,24420,21.44,74206.3,17.55,-18.11,-12.83,0,*4A
1497013411.42,24421,21.44,74208.8,17.51,-18.93,-13.15,0,*4B
1497013412.65,24422,21.38,74204.5,17.43,-17.49,-11.15,0,*41
1497013413.92,24423,21.38,74210.0,17.39,-16.13,-9.45,0,*7F
1497013415.17,24424,21.44,74210.3,17.35,-14.69,-8.11,0,*7B
1497013416.44,24425,21.38,74206.5,17.35,-13.37,-6.93,0,*72
1497013417.64,24426,21.38,74202.8,17.33,-13.19,-6.77,0,*71
1497013418.84,24427,21.44,74206.5,17.33,-15.71,-9.27,0,*72
1497013420.03,24428,21.44,74206.3,17.29,-15.49,-9.31,0,*7A
1497013421.27,24429,21.38,74206.5,17.27,-14.43,-8.41,0,*78
1497013422.47,24430,21.38,74202.5,17.17,-12.93,-7.15,0,*76
1497013423.67,24431,21.44,74206.8,17.17,-11.01,-5.47,0,*7A
1497013424.92,24432,21.38,74200.8,17.17,-10.67,-5.23,0,*7A
1497013426.16,24433,21.38,74202.5,17.15,-9.57,-4.29,0,*49
1497013427.41,24434,21.38,74200.5,17.15,-7.99,-3.03,0,*4D
1497013428.63,24435,21.38,74204.3,17.15,-7.15,-2.27,0,*4F
1497013429.82,24436,21.38,74202.0,17.13,-6.59,-2.27,0,*43
1497013431.04,24437,21.38,74202.5,17.17,-5.47,-1.39,0,*46
1497013432.25,24438,21.38,74200.8,17.19,-3.87,-0.03,0,*45
1497013433.49,24439,21.44,74200.0,17.23,-2.95,0.87,0,*5E
1497013434.7,24440,21.44,74200.3,17.29,-2.83,0.87,0,*5D
1497013435.97,24441,21.44,74200.3,17.31,-2.11,1.37,0,*64
1497013437.17,24442,21.44,74200.3,17.33,-2.35,1.13,0,*65
1497013438.39,24443,21.38,74202.5,17.37,-3.67,-0.15,0,*7C
1497013439.59,24444,21.38,74200.0,17.37,-3.79,-0.37,0,*74
1497013440.8,24445,21.38,74202.3,17.37,-3.27,0.33,0,*57
1497013442.0,24446,21.44,74204.3,17.37,-3.75,-0.37,0,*7A
1497013443.22,24447,21.44,74204.3,17.37,-3.11,0.21,0,*53
1497013444.42,24448,21.44,74204.3,17.37,-2.99,0.33,0,*5E
1497013445.68,24449,21.38,74202.3,17.35,-2.75,0.83,0,*54
1497013446.87,24450,21.44,74204.0,17.37,-3.15,0.09,0,*6B
1497013448.09,24451,21.38,74200.3,17.33,-2.59,0.79,0,*50
1497013449.35,24452,21.44,74202.8,17.31,-2.51,0.63,0,*52
1497013450.59,24453,21.44,74204.5,17.31,-1.25,1.93,0,*6D
1497013451.81,24454,21.38,74202.0,17.31,-0.33,2.55,0,*55
1497013453.06,24455,21.44,74206.5,17.31,0.21,2.69,0,*75
1497013454.32,24456,21.44,74204.3,17.31,0.51,2.81,0,*77
1497013455.56,24457,21.38,74200.3,17.31,1.09,2.91,0,*4B
1497013456.78,24458,21.38,74202.8,17.33,1.13,2.61,0,*42
1497013457.98,24459,21.44,74202.3,17.33,0.97,2.13,0,*7B
1497013459.22,24460,21.44,74202.0,17.33,1.13,1.97,0,*43
1497013460.44,24461,21.44,74202.0,17.33,1.59,2.25,0,*46
1497013461.67,24462,21.44,74202.3,17.33,2.43,2.59,0,*46
1497013462.87,24463,21.44,74206.3,17.33,2.31,2.21,0,*4D
1497013464.08,24464,21.44,74206.3,17.33,2.61,2.25,0,*4B
1497013465.31,24465,21.44,74204.3,17.33,1.97,1.37,0,*40
1497013466.54,24466,21.44,74206.3,17.35,2.35,1.29,0,*41
1497013467.77,24467,21.44,74204.0,17.35,2.39,1.01,0,*46
1497013469.02,24468,21.44,74204.5,17.35,2.47,0.95,0,*7C
1497013470.28,24469,21.44,74204.5,17.35,3.79,2.25,0,*48
1497013471.52,24470,21.44,74202.5,17.39,4.07,2.39,0,*4F
1497013472.72,24471,21.44,74204.5,17.41,3.85,2.01,0,*47
1497013473.93,24472,21.38,74202.8,17.45,3.49,1.75,0,*40
1497013475.13,24473,21.38,74200.3,17.45,3.07,1.41,0,*4C
1497013476.36,24474,21.38,74200.0,17.49,2.73,1.21,0,*43
1497013477.61,24475,21.44,74204.0,17.51,2.47,0.87,0,*71
1497013478.84,24476,21.44,74204.5,17.51,1.83,0.37,0,*72
1497013480.06,24477,21.44,74206.8,17.51,2.31,0.75,0,*7F
1497013481.29,24478,21.44,74204.0,17.55,1.63,0.05,0,*47
1497013482.5,24479,21.38,74204.3,17.53,0.29,-1.55,0,*56
1497013483.71,24480,21.38,74204.3,17.53,-0.93,-2.83,0,*74
1497013484.95,24481,21.44,74206.3,17.53,-0.85,-2.59,0,*75
1497013486.17,24482,21.44,74202.0,17.51,0.63,-1.25,0,*59
1497013487.37,24483,21.44,74204.3,17.49,0.37,-1.51,0,*53
1497013488.58,24484,21.44,74204.0,17.49,-0.03,-1.83,0,*41
1497013489.82,24485,21.44,74206.0,17.51,-0.29,-1.99,0,*7A
1497013491.05,24486,21.44,74206.8,17.49,-1.83,-3.63,0,*46
1497013492.31,24487,21.44,74200.8,17.45,-1.01,-2.51,0,*41
1497013493.55,24488,21.44,74204.0,17.43,-0.69,-2.03,0,*70
1497013494.78,24489,21.44,74206.8,17.43,-0.69,-1.95,0,*7D
1497013495.97,24490,21.44,74206.3,17.45,-0.41,-1.55,0,*75
1497013497.18,24491,21.44,74204.5,17.43,-0.11,-1.25,0,*70
1497013498.38,24492,21.44,74204.5,17.45,0.47,-0.65,0,*6E
1497013499.57,24493,21.44,74206.3,17.45,1.05,-0.29,0,*50
1497013500.79,24494,21.44,74204.5,17.49,1.37,-0.11,0,*51
1497013502.04,24495,21.44,74204.0,17.51,1.93,0.29,0,*71
1497013503.26,24496,21.44,74204.5,17.57,1.93,0.13,0,*7D
1497013504.51,24497,21.44,74204.8,17.55,1.33,-0.57,0,*59
1497013505.75,24498,21.44,74206.0,17.59,1.55,-0.37,0,*5C
1497013507.01,24499,21.44,74206.0,17.59,1.37,-0.85,0,*50
1497013508.25,24500,21.44,74204.5,17.63,1.67,-0.41,0,*55
1497013509.46,24501,21.44,74206.0,17.67,1.41,-0.77,0,*51
1497013510.69,24502,21.44,74208.8,17.67,1.59,-0.41,0,*5E
1497013511.95,24503,21.44,74206.8,17.67,1.17,-1.13,0,*63
1497013513.22,24504,21.44,74204.5,17.73,0.91,-1.35,0,*5A
1497013514.44,24505,21.44,74204.5,17.73,0.97,-1.33,0,*5B
1497013515.7,24506,21.44,74204.0,17.73,1.43,-1.01,0,*61
1497013516.97,24507,21.44,74210.0,17.77,1.09,-1.35,0,*6D
1497013518.2,24508,21.44,74208.5,17.81,1.75,-0.97,0,*59
1497013519.44,24509,21.44,74206.3,17.81,1.47,-1.55,0,*66
1497013520.7,24510,21.44,74204.8,17.85,1.43,-1.87,0,*61
1497013521.95,24511,21.44,74210.3,17.85,1.17,-2.15,0,*69
1497013523.2,24512,21.44,74210.0,17.87,1.17,-2.51,0,*68
1497013524.4,24513,21.44,74210.0,17.89,0.09,-3.83,0,*67
1497013525.62,24514,21.44,74210.0,17.89,0.01,-4.01,0,*65
1497013526.85,24515,21.44,74210.5,17.89,-0.73,-4.93,0,*77
1497013528.12,24516,21.44,74210.5,17.89,-1.09,-5.07,0,*44
1497013529.39,24517,21.44,74208.0,17.89,-0.97,-4.81,0,*7C
1497013530.62,24518,21.44,74212.3,17.91,-3.75,-7.57,0,*4D
1497013531.83,24519,21.44,74210.3,17.91,-3.71,-7.19,0,*42
1497013533.05,24520,21.44,74208.3,17.91,-3.87,-7.01,0,*48
1497013534.24,24521,21.44,74208.8,17.91,-4.17,-7.11,0,*46
1497013535.47,24522,21.44,74212.0,17.91,-4.77,-7.43,0,*44
1497013536.68,24523,21.44,74208.3,17.91,-6.47,-9.15,0,*49
1497013537.9,24524,21.44,74210.3,17.89,-6.09,-8.33,0,*48
1497013539.11,24525,21.44,74210.3,17.89,-6.35,-8.59,0,*4A
1497013540.34,24526,21.44,74206.3,17.87,-7.73,-9.75,0,*4B
1497013541.56,24527,21.44,74208.8,17.89,-8.37,-9.71,0,*4F
1497013542.8,24528,21.44,74206.8,17.89,-9.53,-10.23,0,*7C
1497013544.06,24529,21.44,74210.0,17.87,-10.75,-10.67,0,*4F
1497013545.29,24530,21.44,74210.3,17.83,-10.49,-9.53,0,*73
1497013546.5,24531,21.44,74210.3,17.83,-10.79,-8.97,0,*78
1497013547.75,24532,21.44,74204.5,17.81,-11.67,-9.19,0,*70
1497013548.99,24533,21.44,74210.8,17.79,-14.37,-11.55,0,*47
1497013550.2,24534,21.44,74208.5,17.75,-15.25,-11.45,0,*4F
1497013551.43,24535,21.44,74210.8,17.69,-14.47,-10.09,0,*4F
1497013552.68,24536,21.44,74206.3,17.67,-12.75,-7.83,0,*71
1497013553.91,24537,21.44,74210.3,17.65,-13.51,-8.11,0,*71
1497013555.14,24538,21.44,74210.3,17.61,-13.73,-7.91,0,*7D
1497013556.4,24539,21.44,74206.8,17.59,-13.51,-7.43,0,*78
1497013557.68,24540,21.44,74208.8,17.59,-13.61,-7.31,0,*70
1497013558.9,24541,21.44,74208.0,17.55,-13.43,-6.77,0,*7E
1497013560.13,24542,21.44,74208.0,17.53,-12.97,-5.81,0,*79
1497013561.38,24543,21.44,74206.3,17.51,-13.01,-5.55,0,*7D
1497013562.61,24544,21.44,74204.0,17.49,-13.33,-5.43,0,*75
1497013563.88,24545,21.44,74206.0,17.43,-12.83,-4.89,0,*73
1497013565.13,24546,21.44,74206.5,17.43,-12.75,-4.61,0,*7F
1497013566.36,24547,21.44,74206.5,17.41,-12.11,-3.83,0,*75
1497013567.6,24548,21.44,74210.3,17.37,-12.35,-3.63,0,*73
1497013568.85,24549,21.44,74204.0,17.35,-12.29,-3.51,0,*7C
1497013570.08,24550,21.44,74208.3,17.33,-12.61,-3.55,0,*7A
1497013571.34,24551,21.44,74210.3,17.31,-11.07,-1.75,0,*7A
1497013572.59,24552,21.44,74210.3,17.29,-11.37,-2.07,0,*75
1497013573.8,24553,21.44,74210.3,17.27,-9.79,-0.61,0,*7B
1497013575.02,24554,21.44,74208.3,17.27,-9.05,-0.19,0,*78
1497013576.25,24555,21.44,74204.5,17.21,-9.15,-0.33,0,*76
1497013577.48,24556,21.44,74206.8,17.21,-7.73,0.95,0,*5A
1497013578.69,24557,21.44,74208.0,17.21,-7.05,1.05,0,*62
1497013579.92,24558,21.44,74204.3,17.19,-6.35,1.43,0,*66
1497013581.13,24559,21.44,74204.8,17.17,-6.13,1.33,0,*6A
1497013582.36,24560,21.44,74206.0,17.17,-4.85,2.13,0,*6C
1497013583.6,24561,21.44,74204.3,17.17,-3.63,2.89,0,*61
1497013584.81,24562,21.44,74206.5,17.19,-3.07,3.25,0,*69
1497013586.02,24563,21.44,74206.8,17.17,-2.35,3.45,0,*60
1497013587.25,24564,21.44,74210.5,17.19,-1.83,3.59,0,*6A
1497013588.43,24565,21.44,74202.8,17.17,-1.75,2.99,0,*61
1497013589.69,24566,21.44,74206.5,17.19,-1.35,3.19,0,*61
1497013590.9,24567,21.44,74206.0,17.19,-0.73,3.59,0,*57
1497013592.15,24568,21.44,74206.5,17.19,-0.23,3.71,0,*57
1497013593.37,24569,21.44,74206.3,17.21,0.13,3.67,0,*74
1497013594.6,24570,21.44,74206.3,17.21,-0.23,3.03,0,*50
1497013595.84,24571,21.44,74202.0,17.21,-0.23,2.73,0,*57
1497013597.05,24572,21.44,74202.5,17.21,-0.41,2.51,0,*50
1497013598.25,24573,21.44,74202.0,17.17,-0.33,2.47,0,*56
1497013599.48,24574,21.44,74204.5,17.19,-0.15,2.47,0,*5B
1497013600.68,24575,21.44,74204.8,17.17,-0.07,2.43,0,*63
1497013601.88,24576,21.44,74206.0,17.17,0.25,2.61,0,*7D
1497013603.09,24577,21.44,74202.5,17.15,0.43,2.85,0,*74
1497013604.34,24578,21.44,74204.3,17.15,0.59,2.85,0,*70
1497013605.57,24579,21.44,74202.0,17.15,1.43,3.59,0,*4B
1497013606.83,24580,21.44,74204.8,17.15,1.71,3.79,0,*4E
1497013608.06,24581,21.44,74206.8,17.13,2.01,4.01,0,*45
1497013609.31,24582,21.44,74204.5,17.15,0.37,2.05,0,*75
1497013610.52,24583,21.44,74200.8,17.13,-0.33,1.37,0,*59
1497013611.77,24584,21.44,74204.0,17.11,0.41,2.05,0,*76
1497013612.97,24585,21.44,74200.0,17.09,0.97,2.69,0,*7F
1497013614.19,24586,21.44,74206.0,17.09,0.59,2.21,0,*72
1497013615.39,24587,21.44,74202.0,17.09,0.97,2.47,0,*71
1497013616.63,24588,21.44,74204.3,17.07,1.17,2.55,0,*4A
1497013617.87,24589,21.44,74204.3,17.05,0.67,2.25,0,*78
1497013619.13,24590,21.44,74204.3,17.05,1.37,2.85,0,*4E
1497013620.4,24591,21.44,74204.0,17.05,1.37,2.81,0,*4B
1497013621.63,24592,21.44,74202.0,17.07,1.37,2.55,0,*43
1497013622.86,24593,21.44,74208.5,17.05,1.41,2.51,0,*45
1497013624.09,24594,21.44,74204.3,17.05,2.09,2.99,0,*49
1497013625.35,24595,21.44,74204.3,17.01,1.55,2.39,0,*4C
1497013626.59,24596,21.44,74204.5,16.99,1.85,2.47,0,*4B
1497013627.82,24597,21.44,74206.5,16.99,0.91,1.59,0,*72
1497013629.05,24598,21.44,74204.5,16.95,1.29,1.55,0,*4F
1497013630.28,24599,21.44,74206.0,16.95,1.47,1.67,0,*47
1497013631.53,24600,21.44,74210.8,16.97,1.67,1.71,0,*43
1497013632.77,24601,21.44,74202.8,16.95,3.15,3.03,0,*40
1497013633.95,24602,21.44,74208.0,16.95,3.25,2.99,0,*42
1497013635.18,24603,21.44,74204.8,16.95,3.37,3.03,0,*42
1497013636.43,24604,21.44,74206.5,16.97,3.15,2.61,0,*42
1497013637.69,24605,21.44,74204.3,16.97,3.45,2.73,0,*45
1497013638.92,24606,21.44,74206.5,16.97,2.91,2.13,0,*48
1497013640.17,24607,21.44,74206.3,16.97,2.89,1.93,0,*4B
1497013641.41,24608,21.44,74208.5,16.99,3.03,2.21,0,*43
1497013642.64,24609,21.44,74208.5,16.99,3.03,2.09,0,*48
1497013643.87,24610,21.44,74204.3,17.01,2.95,2.09,0,*4E
1497013645.08,24611,21.44,74208.3,16.99,2.91,2.05,0,*47
1497013646.29,24612,21.44,74204.8,16.99,2.91,2.09,0,*48
1497013647.52,24613,21.44,74206.8,17.01,2.91,2.21,0,*43
1497013648.73,24614,21.44,74206.0,17.07,3.15,2.65,0,*4F
1497013649.96,24615,21.44,74206.0,17.05,2.91,2.39,0,*48
1497013651.19,24616,21.44,74204.3,17.07,3.45,3.03,0,*49
1497013652.37,24617,21.44,74206.5,17.09,3.29,2.91,0,*46
1497013653.63,24618,21.44,74202.8,17.11,2.21,1.85,0,*4F
1497013654.89,24619,21.44,74206.5,17.11,2.09,2.05,0,*4F
1497013656.11,24620,21.44,74204.0,17.09,2.21,2.21,0,*40
1497013657.32,24621,21.44,74204.5,17.13,2.91,2.85,0,*4F
1497013658.54,24622,21.44,74204.5,17.13,3.29,3.41,0,*47
1497013659.75,24623,21.44,74204.8,17.13,2.95,3.03,0,*46
1497013660.99,24624,21.44,74204.5,17.15,3.15,3.25,0,*4A
1497013662.21,24625,21.44,74206.0,17.17,2.89,2.73,0,*4F
1497013663.48,24626,21.44,74206.5,17.19,3.15,3.03,0,*40
1497013664.74,24627,21.44,74206.3,17.19,2.81,2.39,0,*45
1497013665.97,24628,21.44,74206.8,17.19,3.41,2.99,0,*4D
1497013667.19,24629,21.44,74204.3,17.21,2.73,1.89,0,*45
1497013668.39,24630,21.44,74204.0,17.21,1.75,0.75,0,*7A
1497013669.6,24631,21.44,74202.5,17.21,2.35,1.29,0,*44
1497013670.83,24632,21.44,74206.5,17.21,2.59,1.37,0,*42
1497013672.07,24633,21.44,74202.8,17.27,3.89,2.55,0,*4E
1497013673.32,24634,21.44,74208.3,17.27,3.97,2.51,0,*42
1497013674.53,24635,21.44,74206.3,17.29,4.33,2.77,0,*40
1497013675.72,24636,21.44,74208.0,17.29,4.41,2.65,0,*45
1497013676.95,24637,21.44,74204.8,17.33,4.97,3.07,0,*41
1497013678.15,24638,21.44,74204.8,17.33,4.37,2.47,0,*41
1497013679.41,24639,21.44,74208.3,17.39,4.63,2.81,0,*41
1497013680.61,24640,21.44,74202.3,17.41,5.29,3.67,0,*46
1497013681.82,24641,21.44,74204.3,17.43,5.63,3.89,0,*4B
1497013683.02,24642,21.44,74206.8,17.51,5.41,3.55,0,*4A
1497013684.22,24643,21.44,74204.3,17.51,4.89,2.91,0,*47
1497013685.44,24644,21.44,74204.3,17.55,4.53,2.61,0,*4C
1497013686.67,24645,21.44,74210.3,17.57,4.67,2.55,0,*4F
1497013687.89,24646,21.44,74204.8,17.59,3.85,1.55,0,*4A
1497013689.1,24647,21.44,74208.5,17.59,1.83,-0.49,0,*5E
1497013690.33,24648,21.44,74208.3,17.59,2.43,0.09,0,*47
1497013691.56,24649,21.44,74204.3,17.59,2.61,0.33,0,*7F
1497013692.76,24650,21.44,74208.3,17.61,2.35,0.13,0,*7F
1497013693.99,24651,21.44,74206.3,17.61,3.03,0.87,0,*77
1497013695.24,24652,21.44,74210.8,17.63,2.73,0.63,0,*7A
1497013696.48,24653,21.44,74210.0,17.63,2.25,-0.15,0,*54
1497013697.73,24654,21.44,74206.5,17.63,1.29,-0.81,0,*51
1497013698.97,24655,21.44,74208.3,17.63,1.55,-0.33,0,*52
1497013700.2,24656,21.44,74208.0,17.63,2.35,0.51,0,*7D
1497013701.43,24657,21.44,74206.0,17.63,0.55,-1.33,0,*50
1497013702.66,24658,21.44,74208.3,17.63,0.83,-0.57,0,*67
1497013703.92,24659,21.44,74204.3,17.63,0.71,-1.05,0,*5D
1497013705.17,24660,21.44,74206.8,17.63,1.37,-0.19,0,*58
1497013706.39,24661,21.44,74206.3,17.63,1.05,-0.45,0,*51
1497013707.64,24662,21.44,74204.5,17.67,2.05,0.55,0,*79
1497013708.89,24663,21.44,74210.3,17.67,1.47,-0.27,0,*55
1497013710.13,24664,21.44,74206.0,17.67,1.55,-0.15,0,*50
1497013711.36,24665,21.44,74204.8,17.73,2.31,0.59,0,*70
1497013712.59,24666,21.44,74206.8,17.75,2.81,1.25,0,*44
1497013713.82,24667,21.44,74206.3,17.81,4.41,3.11,0,*41
1497013715.03,24668,21.44,74206.0,17.85,5.11,3.89,0,*4F
1497013716.24,24669,21.44,74206.8,17.95,4.27,2.85,0,*46